This demonstration page uses our WeatherBlox Daily Observations layout. Learn more.

Left ArrowRight Arrow

39.29038, -76.61219

Hourly Observations for July 2, 2021

Temp ( °F °C ) Dew Point ( °F °C ) Humidity (%) Winds ( mph kmh ) Pressure ( in mb ) Visibility ( mi km ) Precip ( " mm )
12:54 am 00:54 Cloudy with Light Rain 72 22.2 69 20.6 91 91 SW 5 7 29.79 1009 8 13 0.00 0.00
1:54 am 01:54 Cloudy with Light Rain 72 22.2 69 20.6 91 91 SW 5 7 29.79 1009 8 13 0.00 0.00
2:54 am 02:54 Cloudy with Light Rain 72 22.2 69 20.6 91 91 WSW 6 9 29.78 1009 8 13 0.00 0.00
3:54 am 03:54 Cloudy 72 22.2 69 20.6 91 91 SW 3 6 29.77 1008 9 14 0.01 0.25
4:54 am 04:54 Cloudy with Light Rain 71 21.7 69 20.6 94 94 SSW 3 6 29.76 1008 6 10 0.00 0.00
5:54 am 05:54 Cloudy 71 21.7 68 20 90 90 W 6 9 29.76 1008 10 16 0.01 0.25
6:54 am 06:54 Mostly Cloudy 70 21.1 67 19.4 90 90 SW 5 7 29.76 1008 8 13 N/A
7:54 am 07:54 Cloudy 70 21.1 67 19.4 90 90 W 6 9 29.77 1008 10 16 N/A
8:54 am 08:54 Cloudy with Light Rain 72 22.2 68 20 87 87 N N/A 29.76 1008 8 13 0.00 0.00
9:17 am 09:17 Mostly Cloudy with Light Rain 71 21.7 68 20 90 90 W 5 7 29.75 1008 10 16 0.01 0.25
9:54 am 09:54 Cloudy 72 22.2 68 20 87 87 W 6 9 29.75 1008 10 16 0.01 0.25
10:54 am 10:54 Cloudy 74 23.3 68 20 82 82 VRB 5 7 29.76 1008 10 16 N/A
11:50 am 11:50 Cloudy 75 24 68 20 78 78 NW 7 11 29.76 1008 10 16 N/A
11:54 am 11:54 Cloudy 75 23.9 68 20 79 79 WNW 6 9 29.76 1008 10 16 N/A
12:54 pm 12:54 Cloudy 78 25.6 67 19.4 69 69 N 7 11 29.76 1008 10 16 N/A
1:54 pm 13:54 Cloudy 80 26.7 66 18.9 62 62 WNW 13 20 29.75 1007 10 16 N/A
2:54 pm 14:54 Mostly Cloudy 80 26.7 64 17.8 58 58 NW 12 19 29.74 1007 10 16 N/A
3:54 pm 15:54 Mostly Cloudy 82 27.8 62 16.7 51 51 WNW 9 15 29.73 1007 10 16 N/A
4:54 pm 16:54 Mostly Cloudy 81 27.2 58 14.4 45 45 WNW 16 26 29.72 1007 10 16 N/A
5:54 pm 17:54 Mostly Cloudy 81 27.2 54 12.2 39 39 WNW 13 20 29.72 1007 10 16 N/A
6:54 pm 18:54 Partly Cloudy 79 26.1 50 10 36 36 WNW 15 24 29.73 1007 10 16 N/A
7:54 pm 19:54 Partly Cloudy 77 25 51 10.6 40 40 W 8 13 29.75 1008 10 16 N/A
8:54 pm 20:54 Mostly Clear 71 21.7 52 11.1 51 51 W 7 11 29.76 1008 10 16 N/A
9:54 pm 21:54 Mostly Clear 71 21.7 52 11.1 51 51 W 7 11 29.78 1008 10 16 N/A
10:54 pm 22:54 Clear 68 20 53 11.7 59 59 W 8 13 29.78 1009 10 16 N/A
11:54 pm 23:54 Clear 67 19.4 53 11.7 61 61 W 6 9 29.79 1009 10 16 N/A

Powered by AerisWeather